Theta_e
316 320 321 319 318 318 318 318 320 321 319 318 322 321 323 321 326 328 330 333 327 332 330 323 330 338 340 342 345 346 344 343 342 340 340 339 335 332 331 329 328 337 338 338
319 320 318 317 317 318 318 320 322 321 319 319 322 322 323 322 326 331 335 339 340 338 342 336 333 329 336 341 344 347 345 344 344 343 342 338 335 333 332 333 336 341 341 342
320 319 317 320 321 322 320 322 321 321 321 321 321 321 322 320 327 330 333 336 338 342 342 340 341 341 341 343 344 345 346 346 345 345 340 339 338 340 337 338 340 342 341 342
318 317 319 321 320 321 322 317 319 320 321 321 320 320 322 324 326 327 329 332 335 339 338 338 341 343 343 343 343 343 343 342 342 340 339 340 340 341 341 341 342 346 344 345
318 319 320 321 318 319 318 317 318 318 320 320 320 320 320 324 325 326 328 329 331 335 336 338 338 339 342 344 347 345 343 341 339 338 338 340 341 343 344 346 345 345 345 344
318 317 318 318 319 317 315 317 316 318 319 319 323 322 321 329 327 327 326 326 325 330 330 334 334 337 338 340 343 346 347 343 341 341 344 346 345 344 343 343 345 345 343 343
319 318 317 316 317 315 317 317 314 315 319 319 321 320 323 327 325 324 324 324 321 324 324 329 328 329 329 330 331 334 335 336 338 341 339 340 341 342 341 339 338 338 338 339
319 319 317 315 315 315 319 319 312 313 316 316 319 315 321 324 323 323 323 321 321 319 320 323 325 325 324 323 323 323 323 325 325 326 325 325 326 326 325 324 326 324 326 329
318 318 316 316 319 318 318 320 320 322 321 322 320 322 325 325 325 323 322 321 318 318 317 318 318 318 316 316 315 314 314 314 313 313 313 314 315 316 316 317 319 320 319 318
317 318 315 314 317 319 319 320 321 323 322 322 319 322 320 327 327 324 323 321 318 317 317 315 315 316 317 316 316 316 317 315 312 310 309 308 309 309 310 311 312 313 314 316
316 316 314 314 319 318 319 320 323 322 324 325 322 320 324 325 326 325 322 320 319 317 315 318 315 316 316 317 318 318 318 318 318 316 313 311 310 308 307 308 308 309 310 312
313 316 316 315 315 319 318 318 320 318 320 322 321 319 318 323 324 324 321 320 319 318 316 316 316 315 315 317 314 314 313 313 312 312 312 312 312 311 308 307 307 308 308 310
315 315 316 316 317 315 318 318 319 320 320 321 320 318 322 321 324 323 321 320 318 317 317 317 317 318 315 315 318 314 313 311 311 310 310 310 310 311 310 307 308 307 307 308
313 317 317 317 315 315 316 316 318 319 319 317 318 317 317 317 318 319 321 319 319 318 319 320 319 319 317 316 313 311 310 309 308 308 307 307 306 305 305 306 308 309 308 308
315 316 315 314 314 314 315 315 315 319 317 317 315 315 314 316 316 316 318 321 320 319 320 320 319 318 315 312 311 310 310 309 308 307 307 306 306 306 305 305 305 305 308 309
313 316 315 315 315 315 315 315 316 315 315 315 315 315 315 315 314 317 317 319 322 320 320 320 319 316 314 311 310 310 309 308 307 307 306 305 305 306 306 307 306 307 307 306
315 315 315 314 312 313 314 313 313 313 313 314 315 316 315 316 315 319 320 320 321 321 320 320 319 319 314 311 311 310 308 308 307 307 307 307 306 307 307 307 307 307 307 307
313 314 313 313 313 314 312 311 312 314 315 316 316 316 315 315 316 317 319 322 319 317 315 316 317 313 311 312 312 309 308 308 308 307 307 306 306 306 307 308 307 307 307 307
311 313 313 316 314 314 313 315 315 314 315 315 316 315 314 314 316 314 314 317 316 314 312 311 312 313 313 313 309 309 308 308 308 308 307 306 306 306 306 307 306 306 307 308
309 312 313 312 316 316 314 314 313 313 315 313 314 315 314 313 317 315 312 312 312 312 312 313 313 311 310 309 309 308 307 307 307 307 305 306 305 306 307 306 307 306 307 308
312 311 314 314 316 315 314 311 314 314 315 312 314 314 314 315 314 313 312 312 312 312 312 310 310 309 309 309 308 307 307 308 307 306 305 305 305 305 305 305 307 308 308 308
315 316 315 314 315 316 312 314 315 315 315 313 313 313 313 313 311 311 311 310 310 310 310 309 309 308 308 308 307 307 307 306 306 306 306 304 304 304 305 307 308 307 308 308
315 314 316 315 316 312 313 313 313 313 314 314 312 312 312 311 310 309 309 308 308 308 307 307 307 306 306 305 304 304 304 303 304 305 304 304 304 305 306 308 307 308 308 307
311 310 315 314 313 312 312 310 310 312 313 314 312 312 311 311 311 311 309 309 308 306 306 305 305 305 305 305 304 305 304 304 305 305 305 306 307 307 308 307 307 307 307 307
309 308 310 310 310 309 308 309 310 310 311 312 311 311 311 311 310 309 307 306 304 303 302 302 301 301 301 301 301 302 302 302 303 304 305 306 307 307 306 306 305 305 305 305
307 308 310 310 307 308 307 307 307 309 312 312 310 311 310 309 310 307 304 302 301 300 300 301 301 301 301 300 300 300 301 301 303 303 303 304 304 304 304 304 303 303 303 303
Wind_Speed
5 7 7 5 2 2 2 1 3 6 1 3 8 8 11 6 11 14 18 20 15 8 8 14 23 29 27 26 30 33 35 35 31 28 29 29 29 27 25 26 20 20 19 17
3 8 1 1 3 2 2 1 4 8 3 5 10 10 8 2 9 13 18 20 19 13 8 10 12 18 26 27 24 28 31 32 30 26 25 25 24 23 23 22 20 21 23 19
5 3 2 5 6 4 5 4 6 7 10 7 9 14 4 3 6 14 19 19 18 14 11 9 6 8 14 17 18 21 24 25 24 24 21 23 23 20 22 23 22 19 16 17
4 5 5 7 5 2 2 7 6 10 10 8 5 6 4 5 1 16 20 22 18 14 12 12 11 6 1 8 12 13 15 15 18 20 19 18 17 19 20 19 20 13 12 14
3 3 6 6 4 2 3 7 8 10 11 8 6 5 1 6 8 18 20 20 21 13 10 11 13 13 11 7 7 8 12 15 17 17 15 15 16 17 17 16 15 13 13 13
4 2 4 4 1 3 10 6 6 1 3 5 4 5 1 5 9 15 18 19 19 17 11 15 18 15 15 16 17 14 13 16 18 18 17 17 15 16 17 16 15 11 12 12
3 3 1 4 1 2 11 6 3 2 2 2 3 7 4 5 7 9 11 15 19 15 12 17 22 25 27 27 27 25 22 25 22 19 17 13 11 9 8 8 7 6 4 3
3 4 3 5 3 4 3 3 2 4 3 5 10 6 1 2 4 6 6 8 13 18 16 16 25 27 26 27 28 27 26 24 21 20 19 18 14 13 12 8 7 6 4 3
2 3 0 6 3 3 2 1 2 3 1 4 2 2 4 0 4 7 8 9 16 21 16 13 24 28 28 28 30 29 29 28 27 24 21 19 16 14 12 11 9 7 8 6
2 3 1 2 1 9 1 3 2 1 3 4 3 5 6 3 5 4 1 5 10 18 14 14 15 23 20 18 19 19 20 23 25 25 23 21 17 15 13 12 11 11 10 10
2 1 2 2 2 2 3 3 3 1 2 2 4 4 2 4 6 6 4 5 9 13 10 13 12 18 17 12 7 12 13 16 17 18 18 18 20 19 17 14 12 11 11 10
2 1 2 1 3 1 1 2 2 3 4 3 4 7 4 5 5 7 9 10 10 8 4 1 5 14 25 15 9 14 15 16 18 20 24 24 22 22 21 18 17 14 13 12
5 1 3 3 4 4 4 4 3 3 0 8 4 5 1 4 5 10 14 16 16 18 14 14 15 9 13 4 7 12 12 6 12 15 16 16 19 18 21 19 18 13 13 14
6 5 9 8 6 0 6 7 9 9 6 10 14 18 19 18 16 13 18 22 23 19 12 13 12 6 5 3 4 5 7 11 14 17 17 18 16 17 14 13 15 14 13 12
3 8 7 9 7 6 13 15 13 15 16 14 17 19 21 20 19 22 19 25 22 19 14 12 11 6 6 4 2 2 8 13 16 17 18 19 19 17 15 15 15 14 14 13
1 5 2 8 9 13 16 17 17 18 19 19 19 22 17 16 13 16 14 19 18 11 13 11 13 10 9 6 3 4 9 12 15 17 19 21 20 18 17 15 14 14 13 12
3 4 2 6 1 6 11 17 14 12 11 10 11 9 11 16 14 10 7 10 14 11 8 10 13 11 9 6 7 10 11 12 14 17 18 19 19 18 17 16 15 15 15 17
4 4 3 4 3 5 2 2 6 8 6 10 10 11 9 8 5 6 3 7 10 8 5 0 5 7 5 10 11 11 11 12 15 17 19 19 19 18 18 18 17 17 17 18
12 7 3 3 5 8 5 3 4 2 6 9 9 6 3 1 2 9 6 5 9 11 13 8 2 6 10 14 13 15 15 15 18 18 19 19 19 20 19 19 21 19 18 18
5 6 6 3 4 4 0 5 2 2 10 3 7 4 5 3 2 3 8 11 13 9 5 6 11 12 11 15 18 20 20 18 17 17 21 20 20 21 21 22 22 20 19 19
4 4 10 7 5 5 5 3 1 7 3 7 6 7 6 2 4 6 8 6 5 4 5 7 9 13 16 18 21 22 21 17 19 22 22 19 23 23 24 24 21 20 19 19
4 5 4 4 4 7 1 2 5 4 5 5 5 9 7 1 4 6 3 1 2 5 8 11 12 14 17 18 19 21 24 27 30 28 26 24 24 26 24 23 19 18 18 17
4 4 2 6 3 1 2 5 9 9 8 6 6 8 8 9 6 6 6 9 12 11 11 13 14 15 15 18 20 22 22 24 25 26 26 26 27 28 23 18 16 15 15 16
3 3 4 3 3 7 8 11 13 10 11 9 8 8 9 8 2 9 9 12 11 14 15 16 17 15 15 15 18 16 17 19 19 19 21 20 20 21 19 19 16 15 17 18
9 4 7 11 16 17 18 10 8 11 12 9 7 9 8 3 3 6 5 7 10 13 15 14 13 14 16 17 18 18 20 19 19 18 18 19 21 21 22 23 24 26 27 26
14 14 9 9 17 15 19 15 14 15 12 10 15 12 6 6 8 8 8 11 11 10 10 11 12 14 17 18 19 19 17 17 17 19 18 20 24 26 27 28 31 30 31 28
Wind_Direction
28 93 60 41 78 107 151 233 304 307 303 283 317 298 310 344 20 6 360 351 338 335 279 254 238 240 240 242 235 235 234 235 232 226 230 233 232 235 236 242 236 229 232 230
123 71 15 81 109 129 103 24 6 291 309 294 317 299 289 23 35 22 11 8 1 360 359 304 262 239 240 248 247 240 238 239 236 230 234 233 235 231 231 234 240 243 236 241
76 49 313 114 83 96 94 34 344 308 316 269 301 285 215 119 58 31 27 18 16 17 22 5 351 261 247 249 247 241 239 236 232 229 232 240 232 236 227 228 240 246 235 244
66 4 97 92 69 327 116 356 324 317 324 314 4 289 255 333 334 23 17 16 13 16 25 37 43 56 203 246 250 245 237 227 220 222 226 225 233 242 236 239 246 219 257 256
82 63 80 79 69 35 2 320 308 296 287 297 261 262 351 333 337 6 3 7 7 15 37 48 62 74 98 130 153 190 203 216 226 220 219 223 222 222 219 215 230 240 249 253
95 61 43 9 156 46 328 301 293 244 266 256 77 353 283 18 339 340 355 1 6 8 53 80 81 88 92 106 113 139 169 180 192 201 196 195 201 196 206 215 223 220 243 250
111 46 79 12 308 137 8 348 324 234 203 291 46 308 0 357 357 350 349 2 5 18 22 96 85 87 84 85 87 92 101 100 110 143 129 139 143 151 156 139 140 144 160 231
219 202 16 352 37 331 27 352 318 283 264 304 325 270 29 357 343 359 12 34 34 22 10 81 92 91 86 84 83 83 83 80 73 73 72 72 80 80 77 76 82 75 70 33
203 171 317 38 47 337 53 103 35 275 251 265 256 258 184 200 337 356 7 28 55 31 18 22 93 92 87 84 82 75 71 72 73 65 60 54 45 40 36 35 37 38 32 17
136 276 49 52 220 54 10 95 201 100 279 272 241 269 276 270 291 295 298 81 86 66 26 43 58 87 85 77 77 70 56 57 55 54 45 38 30 19 7 353 341 345 345 345
91 266 125 227 43 109 139 143 75 91 256 269 295 257 265 308 273 243 196 154 129 102 89 24 45 43 22 12 13 67 52 37 32 35 34 21 22 10 357 348 340 338 333 327
60 151 248 60 107 40 320 158 180 229 211 238 282 274 304 257 286 223 198 175 163 138 162 263 316 342 354 356 9 61 53 42 33 21 15 2 14 349 343 342 331 334 328 325
174 197 279 185 167 191 238 188 160 128 165 229 238 255 152 261 257 219 214 203 194 198 236 246 273 300 330 318 324 53 40 24 22 9 2 347 350 324 338 328 315 322 321 320
164 191 238 259 292 186 241 220 210 217 230 261 239 282 290 292 287 268 229 223 218 229 251 236 237 300 242 198 103 46 23 3 6 360 351 342 338 335 332 314 312 326 320 312
220 247 220 249 251 241 261 258 242 231 253 258 280 284 288 291 299 295 261 238 233 232 239 232 224 255 215 258 221 358 1 347 345 342 339 343 346 341 340 339 331 318 306 311
169 245 231 268 263 258 260 259 256 261 263 261 266 276 291 303 307 311 269 238 222 214 238 235 232 201 217 219 242 333 324 324 332 337 345 347 339 331 335 336 337 341 336 318
213 204 215 269 304 294 266 255 243 249 252 251 250 284 321 314 327 330 304 215 197 188 178 243 238 236 227 233 286 298 312 324 329 336 336 338 337 326 326 327 324 325 329 329
185 196 202 273 263 247 44 245 276 242 254 221 263 281 305 308 329 350 316 191 157 165 178 360 157 165 216 273 288 298 307 311 321 329 324 325 323 323 321 317 316 321 320 320
215 191 211 243 225 310 269 155 159 278 275 230 249 272 278 152 87 45 51 140 135 127 122 126 157 265 282 299 308 315 318 317 321 321 315 319 316 315 318 315 313 311 306 308
163 217 213 188 241 253 125 161 14 182 280 274 235 227 187 215 281 107 117 118 125 128 166 217 270 290 297 299 297 303 308 305 309 311 320 315 322 322 320 321 315 306 301 299
136 174 214 222 251 275 286 238 185 247 337 337 262 220 193 272 349 154 162 155 186 224 234 256 277 289 289 285 289 294 295 298 300 302 311 315 320 316 317 318 312 307 303 299
207 186 202 202 233 260 150 190 241 358 322 298 255 223 226 320 99 121 106 62 305 291 287 281 281 282 283 287 290 291 293 295 299 301 304 312 315 314 313 312 307 302 301 304
240 237 271 219 243 11 276 297 300 293 288 290 245 214 192 149 114 85 45 10 341 316 304 298 293 288 286 290 296 300 300 301 301 302 305 307 311 312 310 312 309 308 307 305
237 211 246 279 217 241 256 295 293 278 275 276 271 211 176 150 247 303 295 261 282 294 296 294 298 304 304 305 302 302 303 305 305 302 303 307 311 311 310 307 304 304 303 301
271 270 264 271 277 283 278 282 305 302 290 263 202 182 174 188 254 284 284 279 289 297 300 304 311 311 314 315 309 304 302 303 301 300 304 306 308 304 303 300 300 301 301 299
244 250 249 261 278 279 286 289 299 298 283 222 195 187 282 243 295 261 272 297 304 307 317 322 321 320 320 317 314 312 308 303 297 301 305 307 308 305 303 300 300 300 298 296